Terminal Aerodrome Forecast
Issued by NWS Grand Rapids, MI

Home | Current Version | Previous Version | Text Only | Print | Product List | Glossary On
Versions: 1 2 3 4 5 6 7 8 9 10 11 12
000
FTUS43 KGRR 290500
TAFGRR
TAF
KGRR 290540Z 2906/3006 15014G20KT P6SM OVC120 WS020/21050KT
     FM290700 15015G22KT 5SM -FZRAPL OVC035 WS020/21050KT
     FM290900 17012KT 5SM -FZRAPL OVC015
     FM291200 23008KT 1SM -SNPL BR OVC009
     FM291800 31016G28KT 4SM -SHSN OVC015=

USA.gov is the U.S. government's official web portal to all federal, state and local government web resources and services.